User: anonymous   Login
Location: Vancouver
(49.2500°N, 123.1330°W)
Time: 10:26:48
(UTC-07:00)
Language:

AO-27 - Orbit

View from above orbital plane
View from above orbital plane
View from above satellite
View from above satellite

Ground track
Ground track

The orbit data is extracted from the following two-line orbital elements,

1 22825U 93061C   16121.50405824  .00000046  00000-0  35289-4 0  9998
2 22825  98.7548  77.4682 0009554  96.3034 263.9237 14.29951683178426
Epoch (UTC): 30 April 2016 12:05:50
Eccentricity: 0.0009554
inclination: 98.7548°
perigee height: 785 km
apogee height: 799 km
right ascension of ascending node: 77.4682°
argument of perigee: 96.3034°
revolutions per day: 14.29951683
mean anomaly at epoch: 263.9237°
orbit number at epoch: 17842

The dashed part of the orbit path shows where the satellite is in the earth's shadow,  

DLR